DL1NER Weather Reports


Display with metric or nautical units.
time (UTC)temp
F
wind
direction
speed
MPH
gust
MPH
rain 1hr
in
rain 24hr
in
rain mn
in
humidity
%
barometer
mb
20260507192013 51 261 1.0 3.0 0.00 0.09 0.09 76 1016.7
20260507191013 51 261 1.0 6.0 0.00 0.09 0.09 76 1016.5
20260507190013 51 255 1.0 3.0 0.00 0.09 0.09 76 1016.3
20260507185013 51 255 1.0 7.0 0.00 0.09 0.09 76 1016.3
20260507184013 51 257 2.0 4.0 0.00 0.09 0.09 75 1016.3
20260507183013 51 251 1.0 4.0 0.00 0.09 0.09 76 1016.2
20260507182013 51 250 1.0 4.0 0.00 0.09 0.09 75 1016.0
20260507181013 51 250 2.0 4.0 0.00 0.09 0.09 75 1015.8
20260507180012 51 250 3.0 7.0 0.00 0.09 0.09 74 1015.9
20260507175013 52 253 3.0 7.0 0.00 0.09 0.09 74 1015.9
20260507174013 52 288 3.0 7.0 0.00 0.09 0.09 73 1015.9
20260507173013 52 249 4.0 9.0 0.00 0.09 0.09 73 1015.7
20260507172013 52 251 5.0 9.0 0.00 0.09 0.09 72 1015.7
20260507171012 53 272 4.0 10.0 0.00 0.09 0.09 72 1015.6
20260507170012 53 266 3.0 9.0 0.00 0.09 0.09 72 1015.6
20260507165012 53 265 3.0 7.0 0.00 0.09 0.09 71 1015.6
20260507164013 53 241 4.0 11.0 0.00 0.09 0.09 72 1015.6
20260507163012 53 252 4.0 9.0 0.00 0.09 0.09 71 1015.5
20260507162012 53 280 4.0 9.0 0.00 0.09 0.09 70 1015.5
20260507161012 53 268 4.0 9.0 0.00 0.09 0.09 71 1015.3
20260507160012 53 243 5.0 11.0 0.00 0.09 0.09 69 1015.3
20260507155012 54 263 5.0 13.0 0.00 0.09 0.09 69 1015.2
20260507154012 54 240 3.0 10.0 0.00 0.09 0.09 71 1015.1
20260507153012 54 236 4.0 10.0 0.00 0.09 0.09 71 1015.0
20260507152012 54 271 3.0 10.0 0.00 0.09 0.09 70 1015.0
20260507151012 53 242 2.0 8.0 0.00 0.09 0.09 73 1015.1
20260507150012 53 276 4.0 11.0 0.00 0.09 0.09 71 1015.0
20260507145012 53 267 5.0 9.0 0.00 0.09 0.09 72 1015.1
20260507144012 53 223 4.0 10.0 0.00 0.09 0.09 72 1015.0
20260507143012 54 261 6.0 13.0 0.00 0.09 0.09 70 1015.1
20260507142012 54 242 4.0 12.0 0.00 0.09 0.09 72 1015.0
20260507141012 54 225 3.0 12.0 0.00 0.09 0.09 73 1015.1
20260507140011 53 256 7.0 11.0 0.00 0.09 0.09 71 1015.0
20260507135012 54 245 5.0 13.0 0.00 0.09 0.09 74 1015.0
20260507134012 53 232 3.0 8.0 0.00 0.09 0.09 77 1015.0
20260507133011 52 213 4.0 9.0 0.00 0.09 0.09 80 1015.0
20260507132011 51 250 4.0 9.0 0.00 0.09 0.09 79 1015.0
20260507131011 51 264 6.0 12.0 0.00 0.09 0.09 77 1015.1
20260507130011 51 259 5.0 12.0 0.00 0.09 0.09 76 1014.9
20260507125012 51 233 5.0 12.0 0.00 0.09 0.09 75 1014.9
20260507124011 52 238 7.0 15.0 0.00 0.09 0.09 73 1014.7
20260507123011 52 266 4.0 10.0 0.00 0.09 0.09 74 1014.6
20260507122012 53 250 8.0 16.0 0.00 0.09 0.09 73 1014.5
20260507121011 54 267 5.0 13.0 0.00 0.09 0.09 72 1014.4
20260507120011 53 269 6.0 13.0 0.00 0.09 0.09 73 1014.3
20260507115012 53 230 6.0 14.0 0.00 0.09 0.09 75 1014.3
20260507114011 53 241 5.0 13.0 0.00 0.09 0.09 73 1014.3
20260507113011 53 250 7.0 15.0 0.00 0.09 0.09 73 1014.3
20260507112012 54 285 5.0 14.0 0.00 0.09 0.09 72 1014.1
20260507111011 54 219 5.0 15.0 0.00 0.09 0.09 75 1014.0
20260507110011 54 192 5.0 14.0 0.00 0.09 0.09 74 1013.9
20260507105011 54 215 5.0 11.0 0.00 0.09 0.09 75 1013.9
20260507104010 54 199 5.0 12.0 0.00 0.09 0.09 76 1013.9
20260507103010 54 184 5.0 11.0 0.00 0.09 0.09 80 1013.8
20260507102010 53 229 5.0 11.0 0.01 0.09 0.09 80 1013.7
20260507101011 53 229 5.0 11.0 0.01 0.09 0.09 80 1013.7
20260507100012 52 226 4.0 11.0 0.02 0.09 0.09 83 1013.7
20260507095011 52 250 3.0 11.0 0.02 0.09 0.09 87 1013.6
20260507094011 51 248 4.0 11.0 0.02 0.09 0.09 84 1013.4
20260507093010 51 206 4.0 11.0 0.02 0.09 0.09 84 1013.4
20260507092011 51 255 4.0 9.0 0.01 0.08 0.08 85 1013.3
20260507091011 51 254 3.0 7.0 0.02 0.08 0.08 85 1013.1
20260507090010 52 233 2.0 10.0 0.01 0.07 0.07 87 1013.0
20260507085010 52 202 4.0 11.0 0.02 0.07 0.07 85 1012.7
20260507084010 52 280 4.0 10.0 0.02 0.07 0.07 90 1012.6
20260507083010 51 235 5.0 11.0 0.02 0.07 0.07 89 1012.5
20260507082010 51 228 4.0 9.0 0.02 0.06 0.06 90 1012.4
20260507081010 51 283 2.0 7.0 0.02 0.06 0.06 90 1012.2
20260507080011 51 283 2.0 7.0 0.02 0.06 0.06 90 1012.2
20260507075009 51 261 2.0 5.0 0.02 0.06 0.06 89 1012.1
20260507074010 50 261 3.0 8.0 0.02 0.06 0.06 88 1012.0
20260507073009 51 252 2.0 6.0 0.02 0.05 0.05 88 1011.7
20260507072010 51 252 2.0 6.0 0.02 0.05 0.05 88 1011.7
20260507071010 51 234 3.0 8.0 0.02 0.05 0.05 88 1011.6
20260507070012 51 234 2.0 5.0 0.01 0.04 0.04 89 1011.5
20260507065011 51 250 3.0 8.0 0.01 0.04 0.04 88 1011.5
20260507064009 51 215 3.0 8.0 0.01 0.04 0.04 88 1011.4
20260507063011 51 209 2.0 7.0 0.00 0.03 0.03 88 1011.3
20260507062010 51 244 3.0 7.0 0.00 0.03 0.03 88 1011.2
20260507061010 51 246 3.0 8.0 0.00 0.03 0.03 89 1011.1
20260507060010 51 248 2.0 7.0 0.00 0.03 0.03 89 1011.0
20260507055009 51 273 2.0 8.0 0.00 0.03 0.03 89 1010.8
20260507054010 51 223 2.0 9.0 0.00 0.03 0.03 89 1010.8
20260507053009 50 234 4.0 12.0 0.00 0.03 0.03 89 1010.7
20260507052010 50 194 2.0 9.0 0.00 0.03 0.03 89 1010.7
20260507051009 50 197 3.0 7.0 0.00 0.03 0.03 89 1010.5
20260507050010 50 196 1.0 5.0 0.00 0.03 0.03 89 1010.4
20260507045010 50 197 2.0 6.0 0.00 0.03 0.03 89 1010.3
20260507044009 50 202 2.0 5.0 0.00 0.03 0.03 89 1010.3
20260507043009 50 200 2.0 5.0 0.00 0.03 0.03 89 1010.2
20260507042010 50 200 1.0 5.0 0.00 0.03 0.03 89 1010.1
20260507041010 50 199 2.0 7.0 0.00 0.03 0.03 89 1009.9
20260507040010 50 201 1.0 6.0 0.00 0.03 0.03 89 1009.9
20260507035010 50 223 2.0 8.0 0.00 0.03 0.03 90 1009.8
20260507034008 50 208 2.0 6.0 0.00 0.03 0.03 90 1009.7
20260507033008 50 187 1.0 6.0 0.00 0.03 0.03 90 1009.6
20260507032008 50 213 1.0 4.0 0.00 0.03 0.03 90 1009.5
20260507031008 50 213 1.0 4.0 0.00 0.03 0.03 90 1009.5
20260507030009 50 213 1.0 5.0 0.00 0.03 0.03 90 1009.4
20260507025009 50 206 1.0 4.0 0.00 0.03 0.03 90 1009.4
20260507024009 50 202 2.0 4.0 0.00 0.03 0.03 90 1009.4
20260507023013 50 200 2.0 6.0 0.00 0.03 0.03 90 1009.3
20260507022013 50 211 2.0 6.0 0.00 0.03 0.03 90 1009.3
20260507021013 50 200 2.0 8.0 0.00 0.03 0.03 90 1009.2
20260507020013 50 222 2.0 6.0 0.01 0.03 0.03 90 1009.1
20260507015013 50 220 2.0 6.0 0.01 0.03 0.03 90 1009.1
20260507014013 50 206 2.0 6.0 0.01 0.03 0.03 90 1009.1
20260507013013 50 217 2.0 5.0 0.01 0.03 0.03 90 1008.9
20260507012013 50 223 2.0 6.0 0.01 0.03 0.03 90 1008.9
20260507011013 50 209 3.0 11.0 0.01 0.03 0.03 90 1008.9
20260507010013 51 198 2.0 9.0 0.01 0.02 0.02 90 1008.9
20260507005013 51 191 3.0 9.0 0.01 0.02 0.02 90 1008.9
20260507004012 51 229 3.0 11.0 0.01 0.02 0.02 90 1009.0
20260507003012 51 224 4.0 11.0 0.01 0.02 0.02 90 1009.0
20260507002012 52 215 3.0 13.0 0.01 0.02 0.02 90 1008.9
20260507001013 52 211 4.0 13.0 0.01 0.02 0.02 90 1008.8
20260507000013 52 190 3.0 9.0 0.00 0.02 0.02 90 1008.8
20260506235012 52 194 3.0 8.0 0.01 0.02 0.02 90 1008.8
20260506234012 52 246 2.0 6.0 0.01 0.02 0.02 90 1008.7
20260506233012 52 225 3.0 7.0 0.01 0.02 0.02 90 1008.7
20260506232012 52 200 2.0 7.0 0.01 0.02 0.02 90 1008.8
20260506231012 52 229 2.0 6.0 0.01 0.02 0.02 89 1008.8
20260506230012 52 195 2.0 6.0 0.01 0.02 0.02 89 1008.7
20260506225012 53 181 3.0 7.0 0.00 0.01 0.01 89 1008.5
20260506224012 53 196 3.0 7.0 0.00 0.01 0.01 89 1008.4
20260506223012 53 237 3.0 10.0 0.00 0.01 0.01 89 1008.3
20260506222012 53 237 2.0 6.0 0.00 0.01 0.01 89 1008.2
20260506221012 53 234 1.0 6.0 0.00 0.01 0.01 89 1008.0
20260506220012 53 219 2.0 8.0 0.00 0.01 0.01 89 1008.0
20260506215011 53 240 3.0 9.0 0.00 0.07 0.07 89 1008.0
20260506214012 53 240 2.0 11.0 0.00 0.07 0.07 89 1008.1
20260506213012 53 205 3.0 9.0 0.00 0.07 0.07 88 1008.1
20260506212011 53 275 3.0 8.0 0.00 0.07 0.07 89 1008.1
20260506211012 54 238 2.0 11.0 0.00 0.07 0.07 88 1008.0
20260506210012 54 246 3.0 9.0 0.00 0.07 0.07 89 1008.0
20260506205011 54 194 1.0 5.0 0.00 0.07 0.07 89 1007.8
20260506204011 54 217 1.0 4.0 0.00 0.07 0.07 88 1007.7
20260506203011 54 224 1.0 4.0 0.00 0.07 0.07 87 1007.6
20260506202011 54 238 1.0 5.0 0.00 0.07 0.07 87 1007.6
20260506201011 54 238 1.0 3.0 0.01 0.07 0.07 86 1007.6
20260506200011 54 211 1.0 4.0 0.01 0.07 0.07 84 1007.3
20260506195012 54 211 2.0 5.0 0.02 0.07 0.07 83 1007.3
20260506194011 55 188 1.0 4.0 0.02 0.07 0.07 82 1007.2
20260506193011 55 217 2.0 5.0 0.05 0.07 0.07 82 1007.2